Weather reports worldwide

Advertisment
Torp, Norway (1483): temperature & dewpoint: 19.09.2020 16:00:00 - 25.09.2020 16:00:00 (CEST)Torp, Norway (1483): wind speed: 19.09.2020 16:00:00 - 25.09.2020 16:00:00 (CEST)Torp, Norway (1483): wind direction: 19.09.2020 16:00:00 - 25.09.2020 16:00:00 (CEST)Torp, Norway (1483): reduced air pressure: 19.09.2020 16:00:00 - 25.09.2020 16:00:00 (CEST)Torp, Norway (1483): visibility: 19.09.2020 16:00:00 - 25.09.2020 16:00:00 (CEST)
Date & Time tt [°C] td [°C] ff [km/h] ff [kn] dd ppp [hPa] vv [km]
25.09.2020 16:00:00 11,0 7,0 21 11 NNE - 10
25.09.2020 15:00:00 10,4 6,8 21 11 NNE 1004,1 10
25.09.2020 14:00:00 10,2 7,1 16 9 NNE 1004,3 10
25.09.2020 13:00:00 9,9 6,7 16 9 NNE 1004,5 10
25.09.2020 12:00:00 9,4 7,2 13 7 NNE 1004,7 10
25.09.2020 11:00:00 8,9 6,4 13 7 NNE 1004,2 10
25.09.2020 10:00:00 7,9 6,3 9 5 NNE 1003,4 10
25.09.2020 09:00:00 6,9 6,4 9 5 NNE 1002,8 10
25.09.2020 08:00:00 5,7 5,6 5 3 NNW 1002,3 10
25.09.2020 07:00:00 6,7 5,5 4 2 NW 1001,8 10
25.09.2020 06:00:00 7,0 5,1 4 2 - 1001,2 10
25.09.2020 05:00:00 7,3 5,3 5 3 WNW 1000,9 10
25.09.2020 04:00:00 7,9 4,7 4 2 - 1000,4 10
25.09.2020 03:00:00 8,7 4,9 13 7 SW 1000,1 10
25.09.2020 02:00:00 8,9 5,0 18 10 SW 999,8 10
25.09.2020 01:00:00 9,5 5,3 15 8 SW 999,7 10
25.09.2020 00:00:00 10,1 5,5 18 10 SW 999,0 10
24.09.2020 23:00:00 10,4 5,6 24 13 SW 998,6 -
24.09.2020 22:00:00 10,4 6,0 24 13 SW 998,2 10
24.09.2020 21:00:00 11,5 5,7 28 15 SW 997,6 10
24.09.2020 20:00:00 11,9 6,3 34 18 SSW 996,4 10
24.09.2020 19:00:00 12,0 7,0 41 22 SSW - 10
24.09.2020 18:00:00 12,9 7,6 44 24 SSW 994,7 10
24.09.2020 17:00:00 13,2 8,3 52 28 SSW 993,6 10
24.09.2020 16:00:00 14,1 8,2 55 30 SSW 992,9 10
24.09.2020 15:00:00 14,2 8,4 54 29 SSW 992,5 10
24.09.2020 14:00:00 15,2 8,3 57 31 SSW 991,8 10
24.09.2020 13:00:00 15,3 11,1 41 22 SSW 990,9 10
24.09.2020 12:00:00 14,9 13,8 41 22 SSW 990,0 6
24.09.2020 11:00:00 14,8 14,7 34 18 SSW 989,7 2,2
24.09.2020 10:00:00 14,4 14,4 29 16 SSE 989,2 3,0
24.09.2020 09:00:00 14,5 14,4 28 15 SSE 990,3 4,4
24.09.2020 08:00:00 14,9 14,9 26 14 SSE 991,1 6
24.09.2020 07:00:00 14,7 14,7 21 11 SSE 992,1 6
24.09.2020 06:00:00 14,7 14,6 21 11 SE 992,9 6
24.09.2020 05:00:00 14,8 14,7 24 13 SSW 993,7 6
24.09.2020 04:00:00 15,0 14,7 29 16 SSW 994,0 7
24.09.2020 03:00:00 15,1 15,1 26 14 SSE 994,3 5
24.09.2020 02:00:00 14,9 14,9 24 13 SSE 994,9 3,6
24.09.2020 01:00:00 14,4 14,3 11 6 SSE 995,8 2,1
24.09.2020 00:00:00 13,6 13,6 15 8 SE 996,8 2,9
23.09.2020 23:00:00 13,4 13,4 9 5 SSW 997,0 -
23.09.2020 22:00:00 14,2 14,1 15 8 SSW 997,3 7
23.09.2020 21:00:00 14,7 14,7 18 10 SSW 997,4 2,5
23.09.2020 20:00:00 14,7 14,7 18 10 SSW 997,5 2,4
23.09.2020 19:00:00 14,7 14,7 26 14 SSW 997,6 3,0
23.09.2020 18:00:00 14,7 14,7 26 14 SSW 997,7 3,1
23.09.2020 17:00:00 14,8 14,8 26 14 SSW 998,1 3,2
23.09.2020 16:00:00 14,8 14,8 28 15 SSW 998,4 4,0
23.09.2020 15:00:00 15,0 15,0 24 13 SSW 998,5 8
23.09.2020 14:00:00 15,2 15,2 29 16 SSW 998,6 5
23.09.2020 13:00:00 15,0 14,9 26 14 SSW 998,7 2,5
23.09.2020 12:00:00 15,0 15,0 26 14 SSW 998,8 6
23.09.2020 11:00:00 14,9 14,9 21 11 SSW 998,7 3,0
23.09.2020 10:00:00 14,7 14,7 22 12 SSW 999,0 2,7
23.09.2020 09:00:00 14,6 14,6 18 10 SSW 998,9 3,5
23.09.2020 08:00:00 14,7 14,7 16 9 SSW 999,2 3,9
23.09.2020 07:00:00 14,7 14,7 21 11 SSW 999,4 5
23.09.2020 06:00:00 14,6 14,6 21 11 SSW 999,5 5
23.09.2020 05:00:00 14,5 14,5 18 10 SSW 1000,0 7
23.09.2020 04:00:00 14,6 14,3 22 12 SSW 1000,6 9
23.09.2020 03:00:00 14,3 13,8 21 11 SSW 1001,2 10
23.09.2020 02:00:00 14,1 13,1 24 13 SSW 1001,5 9
23.09.2020 01:00:00 13,8 13,6 21 11 SSW 1001,9 9
23.09.2020 00:00:00 14,0 13,9 24 13 SSW 1002,3 8
22.09.2020 23:00:00 14,1 14,1 29 16 SSW 1002,5 -
22.09.2020 22:00:00 13,6 13,6 21 11 SSW 1002,9 -
22.09.2020 21:00:00 13,6 11,4 21 11 SSW 1003,3 10
22.09.2020 20:00:00 13,2 10,3 26 14 SSW 1003,5 10
22.09.2020 19:00:00 14,0 9,0 29 16 SSW - 10
22.09.2020 18:00:00 14,1 9,0 26 14 SSW 1003,6 10
22.09.2020 17:00:00 14,3 9,0 31 17 SSW 1004,4 10
22.09.2020 16:00:00 14,8 8,2 28 15 SSW 1004,9 10
22.09.2020 15:00:00 14,9 8,2 31 17 SSW 1005,5 10
22.09.2020 14:00:00 14,6 7,9 34 18 SSW 1005,9 10
22.09.2020 13:00:00 15,3 7,4 21 11 SSW 1005,9 10
22.09.2020 12:00:00 15,1 6,4 16 9 SW 1006,1 10
22.09.2020 11:00:00 13,7 6,5 13 7 SW 1006,5 10
22.09.2020 10:00:00 12,2 6,6 15 8 SSW 1006,5 10
22.09.2020 09:00:00 9,9 6,5 13 7 SSW 1006,6 10
22.09.2020 08:00:00 8,9 5,9 9 5 SW 1006,9 10
22.09.2020 07:00:00 8,8 5,8 11 6 SSW 1006,8 10
22.09.2020 06:00:00 9,6 6,5 11 6 SSW 1007,2 10
22.09.2020 05:00:00 9,8 6,6 16 9 SW 1007,2 10
22.09.2020 04:00:00 10,0 7,0 8 4 SW 1007,3 10
22.09.2020 03:00:00 10,9 7,3 16 9 SSW 1007,3 10
22.09.2020 02:00:00 11,2 7,7 16 9 SW 1007,6 10
22.09.2020 01:00:00 11,4 8,1 16 9 SSW 1007,9 10
22.09.2020 00:00:00 12,1 8,3 13 7 SSW 1008,4 10
21.09.2020 23:00:00 12,4 8,3 11 6 SSW 1009,0 10
21.09.2020 22:00:00 13,5 8,8 21 11 SW 1009,1 10
21.09.2020 21:00:00 14,0 9,7 18 10 SSW 1009,3 10
21.09.2020 20:00:00 14,1 10,3 18 10 SSW 1009,0 10
21.09.2020 19:00:00 15,0 10,7 22 12 SW 1008,8 10
21.09.2020 18:00:00 16,2 10,8 21 11 SSW 1008,9 10
21.09.2020 17:00:00 16,8 11,2 21 11 SSW 1009,2 10
21.09.2020 16:00:00 17,0 10,9 26 14 SSW 1009,7 10
21.09.2020 15:00:00 16,9 11,5 24 13 SSW 1010,1 10
21.09.2020 14:00:00 17,4 11,1 24 13 SSW 1010,5 10
21.09.2020 13:00:00 16,2 11,6 26 14 SSW 1011,0 10
21.09.2020 12:00:00 16,3 12,8 26 14 SSW 1011,8 10
21.09.2020 11:00:00 16,9 10,9 18 10 SSW 1012,5 10
21.09.2020 10:00:00 15,8 9,4 15 8 SW 1013,1 10
21.09.2020 09:00:00 14,3 9,2 16 9 WSW 1013,4 10
21.09.2020 08:00:00 12,1 8,8 11 6 SW 1014,1 10
21.09.2020 07:00:00 12,4 8,5 9 5 SSW 1014,6 10
21.09.2020 06:00:00 12,5 8,8 8 4 WSW 1014,8 10
21.09.2020 05:00:00 13,8 8,8 15 8 WSW 1015,7 10
21.09.2020 04:00:00 14,1 8,8 11 6 W 1016,2 10
21.09.2020 03:00:00 14,7 9,0 9 5 WSW 1016,6 10
21.09.2020 02:00:00 14,4 9,1 9 5 W 1017,1 10
21.09.2020 01:00:00 14,2 9,4 9 5 W 1017,5 10
21.09.2020 00:00:00 14,3 9,8 11 6 WSW 1017,8 10
20.09.2020 23:00:00 13,4 11,0 9 5 WSW 1018,1 -
20.09.2020 22:00:00 13,3 11,5 9 5 SW 1018,6 10
20.09.2020 21:00:00 13,6 11,1 11 6 SW 1018,5 10
20.09.2020 20:00:00 14,1 11,0 11 6 SSW 1018,4 10
20.09.2020 19:00:00 14,9 9,7 13 7 SSW 1018,4 10
20.09.2020 18:00:00 16,2 10,7 13 7 SSW 1018,5 10
20.09.2020 17:00:00 16,8 11,7 15 8 SSW 1018,8 10
20.09.2020 16:00:00 17,6 11,6 11 6 SSE 1018,9 10
20.09.2020 15:00:00 17,2 11,2 13 7 SSE 1019,6 10
20.09.2020 14:00:00 17,3 11,7 15 8 SSW 1019,9 10
20.09.2020 13:00:00 16,9 10,4 5 3 S 1019,9 10
20.09.2020 12:00:00 16,6 10,0 2 1 - 1020,5 10
20.09.2020 11:00:00 13,7 11,1 5 3 - 1020,8 10
20.09.2020 10:00:00 10,0 10,0 8 4 SW - 0,2
20.09.2020 09:00:00 10,1 10,1 5 3 WSW 1020,6 0,4
20.09.2020 08:00:00 10,2 10,2 9 5 - 1021,4 0,3
20.09.2020 07:00:00 10,4 10,4 4 2 - 1021,1 0,4
20.09.2020 06:00:00 10,1 10,1 5 3 - 1020,8 1,0
20.09.2020 05:00:00 9,9 9,8 4 2 - 1021,3 0,1
20.09.2020 04:00:00 10,8 10,8 4 2 - 1021,9 9
20.09.2020 03:00:00 11,5 11,5 9 5 WSW 1022,2 10
20.09.2020 02:00:00 11,6 11,6 9 5 - 1022,4 9
20.09.2020 01:00:00 12,1 12,1 5 3 - 1022,7 10
20.09.2020 00:00:00 11,1 11,1 8 4 SW 1023,0 10
19.09.2020 23:00:00 10,7 10,7 5 3 SW 1023,3 -
19.09.2020 22:00:00 10,5 10,5 5 3 SW 1023,6 -
19.09.2020 21:00:00 10,8 10,8 4 2 - 1023,5 10
19.09.2020 20:00:00 11,7 11,5 2 1 - 1023,4 10
19.09.2020 19:00:00 13,5 11,3 9 5 SSE 1023,4 10
19.09.2020 18:00:00 14,6 11,0 9 5 SE 1023,4 10
19.09.2020 17:00:00 15,5 10,8 9 5 SSE 1023,7 10
19.09.2020 16:00:00 15,8 10,4 11 6 SE 1024,3 10

tt = temperature
td = dewpoint
ff = wind speed
dd = wind direction
ppp = reduced air pressure
vv = visibility

Next stations